AQI (31)

Current Conditions for Foresthill, CA. Sunny, Dry   
Visibility: 10 miles
Foresthill Advisory text:

  Summary / Temperature 

Current Temperature
81.1°F
27.3°C
(24/hr Ago)
82.4°F
(Apparent temp)
81.9°F
Warm
Heat Index
81.4°F 

87.4°F/ 30.8°C
Noticeable discomfort

 Temp Rate:

 24/hr Difference:

 Avg Running Temp:

 Todays High:

 Todays Low:

 Y-days High:

 Y-days Low:

 Todays HeatIdx:

 Y-days HeatIdx:

 Evapotranspiration:

+2.4°F/hr 

-1.3°F

79.3°F

81.1°F 1:41pm

63.8°F 7:12am

83.4°F 1:16pm

65.1°F 6:51am

81.4°F 1:39pm

82.2°F 2:28pm

0.118 in

115' Above Ground

 Temperature:

 6'AGL VRS 115'AGL:

 Avg Running Temp:

 Humidity:

 Todays High:

 Todays Low:

 Y-days High:

 Y-days Low:

65.0°F 

-16.1°F

65.0°F

0% 

65.0°F 12:00am

65.0°F 12:00am

65.0°F 12:00am

65.0°F 12:00am

Temp & Humidity Graphs

  Wind 

Wind Speed

 Calm

Gusting to

 10.0 mph

Wind from WSW

256°  WSW

Calm

 Avg speed:

 Wind Run:

 Peak Gust:

  3.0 mph 

45.0 miles

  16.0 mph 1:13am

  Almanac  

Moon age: 3 days,14 hours,25 minutes,14%

Waxing Crescent
19%
Illuminated
4 days in cycle

 Moonrise:

 Moonset:

 Sunrise:

 Sunset:

 Solar Noon:

9:47am

11:33pm

5:40am

8:33pm

1:06pm

0min 18s less daylight tomorrow 

  Solar Radiation 

(Current Solar)
  944 W/m2 (85%)
(Todays High)
 954 W/m2@12:45pm
Feels like: 99.5°F in the sun

Rain

 Rain Today:

 Rain Rate (/hr):

 Rain last hour:

 Rain Yesterday:

 This Month:

 Season Total:

14 Days Since Last Rain Day

0.00 in

0.000 in

0.00 in

0.00 in

0.39 in

82.77 in

Updated Time

Updated: 6/27/17  1:41pm

(Updated  sec ago)

Humidity & Barometer

 Humidity:

 Wetbulb:

 Dew Point:

 Barometer:

45% 

66.5°F 

57.7°F 

29.887 inHg 

 Baro Trend:  Steady 
Northern Calif
Preparedness
Fire 
Level 

    UV Index  

(Current UV)
10.5  Very High
(Todays High) @ 12:54pm
10.7   Very High

National Weather Service Forecast

This
Afternoon
This Afternoon: Sunny
Sunny
Tonight

Tonight: Clear
Clear
Wednesday

Wednesday: Sunny
Sunny
Wednesday
Night
Wednesday Night: Clear
Clear
Thursday

Thursday: Sunny
Sunny
Thursday
Night
Thursday Night: Clear
Clear
Hi 84 °F Lo 60 °F Hi 85 °F Lo 63 °F Hi 91 °F Lo 64 °F

Foresthill Probe 2 Stats  
Foresthill Probe 2: is located on Thomas Street
at 3000 feet. The main Foresthill Weather site
is located on Melody ln at the 2860 foot elevation

Light Air
84.9°F
29.4°C
Temp Rate:
+1.3°F
3.0 mph
Gusting to
4.0 mph
(Humidity)
35%
Wind from NNW
337°  NNW
Updated: 27/06/17 - 13:38:12
 Todays High: 85.3°F 12:20
 Todays Low: 61.8°F 06:18
 Rain Today: 0.00 in
 Season Total: 89.33 in

Foresthill Wx: Monthly,Yearly, Highs and Lows 

Foresthill  
This Weather Data is coming from the main Foresthill
Weather site located on Melody ln at the 2860 foot
elevation
Not Foresthill Probe 2
Weather Data
Month
  High
Month
  Low
Year
High
Year
Low
Temp 94.2°F
6/22/17
42.2°F
6/11/17
94.2°F
6/22/17
27.6°F
2/24/17
Humidity 92%
6/10/17
14%
6/5/17
100%
1/1/17
14%
6/5/17
Heat Index 97.6°F
6/19/17
47.1°F
6/11/17
97.6°F
6/19/17
32.5°F
2/24/17
Wind Chill 94.2°F
6/22/17
34.1°F
6/11/17
94.2°F
6/22/17
14.0°F
2/24/17
Wind Gust 23 mph
6/11/17
0 mph
6/1/17
48 mph
1/10/17
0 mph
1/1/17
Barometer 30.21 in
6/12/17
29.64 in
6/22/17
30.69 in
1/27/17
29.29 in
2/17/17
ET 0.25 in
6/23/17
0.00 in
6/1/17
0.25 in
6/23/17
0.00 in
1/1/17
Dew Point 69.7°F
6/19/17
26.7°F
6/5/17
69.7°F
6/19/17
20.6°F
4/28/17
Pacific Satellite US Radar Satellite Imagery Sacramento,CA.  (click to enlarge)
NWS Weather Forecast - Summary
Updated: Tue Jun 27, 2017 - 3:57am (PDT)
Current Interstate Highway Conditions for I-80 & US-50

[I 80: IN THE SAN FRANCISCO BAY AREA - SOLANO CO]
no traffic restrictions are reported for this area.

[I 80: IN THE NORTHERN CALIFORNIA AREA & SIERRA NEVADA]
no traffic restrictions are reported for this area.

[US 50: IN THE SACRAMENTO VALLEY & THE LAKE TAHOE BASIN]
  1-way controlled traffic 5. 6 mi east of riverton /at alder creek rd/ (EL DORADO CO) from 6:00am to 6:00pm monday thru thursday thru 6/29/17 - due to construction
is reduced to 1 lane in each direction from 3 mi east of pollock pines to 1 mi west of riverton /at bridal veil falls rd/ (EL DORADO CO) - due to a slipout - motorists are subject to delays
NWS Weather Forecast: This Afternoon and Tonight (Updated: Tue, 27-Jun-2017 2:16am PDT)
This
Afternoon
This Afternoon: Sunny
Sunny

Hi 84 °F
NWS forecast: Sunny, with a high near 84. Southwest wind around 8 mph.
Tonight

Tonight: Clear
Clear

Lo 60 °F
NWS forecast: Clear, with a low around 60. Southeast wind 3 to 8 mph.
YR.NO 10 Day Weather forecast
Last update: 06/27/2017 @ 00:34
Next update: 06/27/2017 @ 13:00
Provided by: 22
      Temperature Precipitation Pressure Wind  
Today
06/27/2017
13:00 18:00 82°F   29.90 inHg Light breeze from southwest 7 mph
  18:00 00:00 79°F   29.84 inHg Light breeze from southwest 6 mph
    (Click to enlarge)
meteogram

    Forecast for next 9 days

      Temperature Precip Pressure Wind  
Wednesday
06/28/2017
00:00 06:00 57°F   29.86 inHg Light air from east 2 mph
  06:00 12:00 52°F   29.85 inHg Light breeze from east-northeast 4 mph
  12:00 18:00 81°F   29.88 inHg Light breeze from southwest 6 mph
  18:00 00:00 81°F   29.82 inHg Light breeze from southwest 6 mph
      Temperature Precip Pressure Wind  
Thursday
06/29/2017
00:00 06:00 59°F   29.87 inHg Light air from east-northeast 3 mph
  06:00 12:00 55°F   29.86 inHg Light breeze from east-northeast 5 mph
  12:00 18:00 84°F   29.90 inHg Light breeze from west-southwest 7 mph
  17:00 23:00 86°F   29.85 inHg Light breeze from west-southwest 6 mph
  23:00 05:00 66°F   29.88 inHg Light air from east 3 mph
      Temperature Precip Pressure Wind  
Friday
06/30/2017
05:00 11:00 57°F   29.86 inHg Light breeze from east-northeast 4 mph
  11:00 17:00 84°F   29.87 inHg Light breeze from west-southwest 6 mph
  17:00 23:00 86°F   29.82 inHg Light breeze from west-southwest 7 mph
  23:00 05:00 68°F   29.84 inHg Light air from east 3 mph
      Temperature Precip Pressure Wind  
Saturday
07/01/2017
05:00 11:00 57°F   29.79 inHg Light breeze from east-northeast 5 mph
  11:00 17:00 82°F   29.79 inHg Light breeze from west 7 mph
  17:00 23:00 88°F   29.73 inHg Light breeze from west-southwest 7 mph
  23:00 05:00 68°F   29.79 inHg Light air from east 2 mph
      Temperature Precip Pressure Wind  
Sunday
07/02/2017
05:00 11:00 59°F   29.78 inHg Light air from east-northeast 3 mph
  11:00 17:00 86°F   29.82 inHg Light breeze from west-southwest 6 mph
  17:00 23:00 90°F   29.80 inHg Light breeze from southwest 7 mph
  23:00 05:00 70°F   29.88 inHg Light air from east 2 mph
      Temperature Precip Pressure Wind  
Monday
07/03/2017
05:00 11:00 61°F   29.87 inHg Light breeze from east-northeast 4 mph
  11:00 17:00 84°F   29.91 inHg Light breeze from west-southwest 6 mph
  17:00 23:00 86°F   29.86 inHg Light breeze from west-southwest 6 mph
  23:00 05:00 66°F   29.89 inHg Light air from east-southeast 2 mph
      Temperature Precip Pressure Wind  
Tuesday
07/04/2017
05:00 11:00 57°F   29.88 inHg Light air from east 3 mph
  11:00 17:00 81°F   29.91 inHg Light breeze from southwest 6 mph
  17:00 23:00 82°F   29.84 inHg Light breeze from west-southwest 6 mph
  23:00 05:00 64°F   29.89 inHg Light air from east-southeast 1 mph
      Temperature Precip Pressure Wind  
Wednesday
07/05/2017
05:00 11:00 55°F   29.88 inHg Light air from east 2 mph
  11:00 17:00 79°F   29.91 inHg Light breeze from west-southwest 6 mph
  17:00 23:00 82°F   29.85 inHg Light breeze from west-southwest 6 mph
  23:00 05:00 64°F   29.92 inHg Light air from east-southeast 1 mph
      Temperature Precip Pressure Wind  
Thursday
07/06/2017
05:00 11:00 57°F   29.91 inHg Light breeze from east-northeast 5 mph
  11:00 17:00 84°F   29.94 inHg Light breeze from west-southwest 6 mph
How Close Are We To this Month's Temperature Record ?
Updated Tuesday, Jun 27, 2017- 1:35:01 PM

Current Temperature: 81.1°F

June's High: Temperature Record 95.1°F - Set on Sat, Jun 8, 2013 - 3:58:00 PM
We are currently 14°F Less than this Month's record High

June's Low: Temperature Record 40.8°F - Set on Tue, Jun 5, 2012 - 5:41:00 AM
We are currently 40.3°F More than this Month's record Low

Weather History For Tuesday, June 27, 2017


On this Day - In Weather History ...
Data courtesy of weatherforyou.com
powered by Cumulus v1.9.3 (1059)
Ambient Weather VWS v14.00
Top Contact Website Map Copyright © 2007 - 2017 Foresthillweather.com Never base important decisions on this or any weather information obtained from the Internet